Location: Donald C. Martin Observatory
(38.3885°N, 82.3916°W)
Time: 11:35:26
(UTC-04:00)

Daily predictions for brighter satellites

Satellite Brightness Start Highest point End
(mag) Time Altitude Azimuth Time Altitude Azimuth Time Altitude Azimuth
Cosmos 2333 Rocket 3.0 20:32:40 10° SW 20:38:14 59° WNW 20:43:50 10° NNE
Cosmos 2237 Rocket 2.2 20:36:15 10° SSW 20:41:52 85° ESE 20:47:31 10° NNE
Genesis I 4.1 20:38:31 10° NW 20:42:30 52° WSW 20:46:25 10° SSE
ATLAS 2AS CENTAUR R/B 3.1 20:35:26 10° NW 20:43:18 82° WSW 20:50:28 10° SSE
SJ-6B 2.8 20:40:27 10° SSE 20:44:24 68° ENE 20:48:18 10° N
Cosmos 2056 Rocket 4.0 20:39:31 10° S 20:44:33 41° ESE 20:49:34 10° NNE
Nadezhda 3 Rocket 4.2 20:41:42 10° N 20:48:03 83° W 20:54:25 10° S
Cosmos 1869 4.1 20:44:48 10° SSE 20:48:21 31° E 20:51:55 10° NNE
CZ-2D R/B 3.2 20:46:57 10° SSE 20:50:44 81° ENE 20:54:33 10° N
HJ-1C 3.7 20:47:54 10° S 20:51:13 69° WSW 20:54:35 10° NNW
Cosmos 2278 Rocket 2.2 20:48:55 10° NNW 20:54:37 82° ENE 21:00:18 10° SSE
Cosmos 2228 Rocket 3.0 20:51:12 10° S 20:55:33 70° E 20:59:57 10° NNE
Cosmos 1470 Rocket 3.6 20:54:41 10° N 20:59:07 71° E 21:03:33 10° SSE
Cosmos 1624 Rocket 4.0 20:55:23 10° S 21:00:28 61° ESE 21:05:35 10° NNE
ASTRO E2 3.8 20:57:17 10° WSW 21:00:50 30° S 21:03:50 13° ESE
OAO 3 Rocket 4.4 20:57:59 10° SSW 21:01:40 22° SSE 21:04:46 12° ESE
Cosmos 1825 2.4 20:58:41 10° N 21:02:22 49° E 21:06:01 10° SSE
Meteor 2-10 Rocket 4.1 20:59:08 10° SSE 21:04:32 44° E 21:10:00 10° NNE
CZ-4C R/B 3.0 21:00:55 10° SSE 21:04:55 24° ESE 21:09:18 10° ENE
Cosmos 1151 Rocket 3.0 21:02:44 10° S 21:07:00 88° W 21:11:18 10° N
Spot 2 Rocket 4.0 21:02:59 10° SE 21:07:43 41° ENE 21:12:28 10° N
Cosmos 1939 Rocket 2.8 21:06:21 10° SSE 21:10:10 62° ENE 21:14:05 10° N
Cosmos 1408 2.5 21:07:19 10° N 21:11:00 76° E 21:14:42 10° S
Cosmos 405 Rocket 3.9 21:08:22 12° SE 21:11:11 24° E 21:14:23 10° NE
Cosmos 2098 Rocket 3.0 21:08:58 10° SSE 21:13:08 46° E 21:16:32 10° NNE
NOSS 3-4 (A) 4.1 21:07:10 10° NNW 21:14:08 58° NE 21:20:28 15° SE
NOSS 3-4 (C) 4.1 21:07:16 10° NNW 21:14:14 57° NE 21:20:33 15° SE
ARGOS 4.5 21:13:48 14° ESE 21:16:48 22° ENE 21:20:50 10° NNE
Cosmos 405 3.7 21:13:42 10° N 21:16:54 33° ENE 21:18:48 19° SE
OAO 3 Copernicus 4.4 21:12:01 10° WSW 21:16:58 58° S 21:20:51 16° E
Hubble Space Telescope 2.7 21:17:57 10° SSW 21:20:01 13° SSE 21:20:37 13° SSE
Cosmos 1959 Rocket 4.4 21:18:48 10° S 21:24:57 82° E 21:31:04 10° N
Thor Agena Rocket 3.9 21:19:57 10° N 21:25:12 70° WNW 21:30:28 10° SSW
Resurs 01 Rocket 1.6 21:22:18 10° SSE 21:26:44 83° ENE 21:31:11 10° N
SAR-Lupe-3 4.5 21:23:25 10° NNE 21:26:59 66° ESE 21:30:32 10° S
Cosmos 1933 Rocket 3.9 21:22:49 10° NNW 21:27:10 67° W 21:31:27 10° S
YAOGAN 6 2.9 21:24:29 10° S 21:28:04 66° W 21:31:44 10° NNW
Lacrosse 5 3.9 21:25:05 10° NNW 21:28:27 17° NNE 21:31:48 10° ENE
SL-16 R/B 2.2 21:30:15 10° SSW 21:35:54 86° WNW 21:41:36 10° NNE
ERS-2 3.5 21:32:38 10° S 21:36:04 38° W 21:39:31 10° NNW
Cosmos 1727 Rocket 4.0 21:31:16 10° N 21:37:24 64° E 21:42:30 15° SSE
Cosmos 1707 Rocket 4.0 21:37:18 24° SE 21:39:20 39° E 21:43:23 10° NNE
Cosmos 1420 Rocket 4.3 21:37:52 10° S 21:42:52 44° ESE 21:47:54 10° NNE
Cosmos 1862 3.4 21:43:13 10° N 21:47:11 55° E 21:48:34 35° SE
Resurs 1-3 4.3 21:43:19 10° S 21:47:36 54° W 21:51:54 10° NNW
Cosmos 407 Rocket 3.4 21:42:34 10° NNW 21:47:43 83° WSW 21:51:12 21° SSE
Cosmos 1869 Rocket 3.5 21:46:23 10° N 21:50:43 64° E 21:52:31 33° SSE
CZ-4B DEB 4.4 21:51:29 45° SE 21:52:23 67° ENE 21:55:52 10° N
Cosmos 2344 3.5 21:50:53 10° SSW 21:58:30 74° ESE 22:06:35 10° NE
Cosmos 1943 4.3 22:03:13 26° E 22:03:13 26° E 22:06:55 10° NE
RESURS DK-1 4.5 22:00:54 10° NNE 22:03:15 15° NE 22:03:23 15° NE
Cosmos 1023 Rocket 4.4 21:58:16 10° NNW 22:03:24 70° ENE 22:05:14 39° SE
Cosmos 1603 3.8 21:59:43 18° S 22:03:40 51° ESE 22:09:04 10° NNE
Cosmos 2369 Rocket 3.4 22:04:58 10° N 22:09:45 27° ENE 22:10:58 25° ENE
Cosmos 1441 Rocket 4.1 22:07:22 10° SSW 22:10:53 46° WNW 22:14:31 10° N
Cosmos 2297 4.2 22:07:30 10° NNW 22:13:05 58° WSW 22:16:16 25° S
Cosmos 676 Rocket 4.0 22:08:53 10° NNW 22:14:07 79° WSW 22:16:11 38° S
Helios 1B rocket 4.5 22:14:32 10° NE 22:15:40 16° NE 22:15:40 16° NE
USA 81 4.4 22:14:19 10° N 22:19:31 65° W 22:22:37 24° SSW
SL-08 RB Rocket 3.6 22:19:21 58° ESE 22:19:46 61° ENE 22:24:11 10° N
ATLAS 5 CENTAUR R/B 3.4 22:14:51 10° NNW 22:20:12 33° NE 22:22:08 28° E
Gblst 52 Del rocket 4.4 22:15:16 10° WSW 22:20:53 68° NW 22:26:22 10° NE
H-2A R/B 1.9 22:21:22 54° SE 22:22:16 66° ENE 22:27:11 10° N
Cosmos 1452 Rocket 4.0 22:21:44 10° SSW 22:26:54 59° WNW 22:32:06 10° N
Terra 3.6 22:27:36 19° NE 22:27:36 19° NE 22:30:20 10° NNE
Cosmos 1140 Rocket 3.6 22:22:53 10° NNW 22:28:01 69° WSW 22:29:27 46° S
DMSP B5D2-2 4.4 22:24:06 10° NNE 22:28:50 47° E 22:28:50 47° E
Cosmos 1933 4.3 22:39:29 36° WSW 22:40:31 44° W 22:44:27 10° N
Cosmos 921 Rocket 3.4 22:43:47 57° NNE 22:43:47 57° NNE 22:47:14 10° NNE
Cosmos 1934 Rocket 3.8 22:41:52 57° SSE 22:43:05 76° E 22:49:08 10° N
OAO 3 Rocket 4.5 22:40:08 10° WSW 22:42:38 29° SW 22:42:38 29° SW
Cosmos 2242 Rocket 3.9 22:46:07 60° NNE 22:46:07 60° NNE 22:49:46 10° N
Cosmos 1850 Rocket 3.8 22:40:36 10° NNW 22:45:48 76° ENE 22:45:51 76° E
MetOp-B 4.4 22:47:10 50° SSW 22:48:20 63° WSW 22:53:39 10° NNW
CZ-4C R/B 3.2 22:48:05 10° WSW 22:52:58 43° NW 22:58:35 10° NNE
Meteor 1-14 Rocket 4.1 22:48:36 10° N 22:54:06 72° ENE 22:54:06 72° ENE
Helios 1A 3.6 22:56:13 53° NNW 22:56:13 53° NNW 22:59:27 10° NNW
Cosmos 1174 4.5 22:54:42 52° WSW 22:55:39 66° WNW 22:59:54 10° NNE
Cosmos 1862 Rocket 4.2 22:57:23 53° N 22:57:23 53° N 23:00:47 10° N
ARGOS 3.9 22:55:19 37° SW 22:56:42 45° W 23:01:51 10° NNW
Cosmos 1741 Rocket 3.9 22:51:24 10° NNW 22:56:42 88° NW 22:56:42 88° NW
ATLAS 2A CENTAUR R/B 4.0 22:42:59 10° WSW 23:01:04 47° S 23:03:00 44° SSE
Meteor 1-25 Rocket 4.1 22:55:22 10° N 23:00:59 79° ENE 23:00:59 79° ENE
Cosmos 1943 Rocket 2.6 22:57:50 10° NNW 23:02:48 50° NE 23:02:48 50° NE
SL-19 R/B 4.2 23:04:58 71° NE 23:04:58 71° NE 23:10:24 10° N
USA 267 4.4 23:00:13 10° NE 23:03:05 27° ENE 23:03:05 27° ENE
Cosmos 1437 Rocket 4.3 23:04:40 10° NNW 23:07:20 35° NW 23:07:20 35° NW
ERS-1 Rocket 3.6 23:09:44 46° WSW 23:09:54 47° W 23:14:44 10° NNW
SPOT 5 3.4 23:12:28 50° NW 23:12:28 50° NW 23:15:48 10° NNW
Lacrosse 5 2.3 23:07:08 10° NW 23:11:23 59° N 23:11:23 59° N
Meteor 1-20 Rocket 4.2 23:08:51 10° N 23:13:54 76° NNW 23:13:54 76° NNW
Cosmos 1943 4.3 23:44:56 36° W 23:46:03 39° WNW 23:51:22 10° N
CZ-2C R/B 4.0 23:45:03 10° NNE 23:47:57 32° NNE 23:47:57 32° NNE
Cosmos 2369 Rocket 3.3 23:48:35 10° NW 23:52:46 37° WNW 23:52:46 37° WNW
